This is the latest recevied weather packets stored in our database for station/object DF7ER-12. If no packets are shown the sender has not sent any weather packets the latest 10 day(s).
| Time | Temp. | Humidity | Pressure | Rain* | Wind** | Luminosity | Snow |
|---|---|---|---|---|---|---|---|
| 1788436973 | 22.78° C | 87% | 1003.5 hPa | - | - | - | - |
| 1788436673 | 22.78° C | 86% | 1003.6 hPa | - | - | - | - |
| 1788436373 | 22.78° C | 87% | 1003.7 hPa | - | - | - | - |
| 1788436073 | 22.78° C | 87% | 1003.7 hPa | - | - | - | - |
| 1788435773 | 22.78° C | 85% | 1003.8 hPa | - | - | - | - |
| 1788435473 | 22.78° C | 84% | 1003.7 hPa | - | - | - | - |
| 1788435173 | 22.78° C | 85% | 1003.7 hPa | - | - | - | - |
| 1788434873 | 22.22° C | 85% | 1003.7 hPa | - | - | - | - |
| 1788434573 | 22.78° C | 83% | 1003.8 hPa | - | - | - | - |
| 1788434273 | 22.78° C | 84% | 1003.8 hPa | - | - | - | - |
| 1788433973 | 23.33° C | 82% | 1003.8 hPa | - | - | - | - |
| 1788433673 | 22.78° C | 83% | 1003.8 hPa | - | - | - | - |
| 1788433373 | 22.78° C | 83% | 1003.9 hPa | - | - | - | - |
| 1788433073 | 22.78° C | 84% | 1003.9 hPa | - | - | - | - |
| 1788432773 | 22.78° C | 84% | 1003.9 hPa | - | - | - | - |
| 1788432473 | 22.22° C | 85% | 1003.9 hPa | - | - | - | - |
| 1788432173 | 21.67° C | 89% | 1004.1 hPa | - | - | - | - |
| 1788431873 | 21.67° C | 87% | 1004.2 hPa | - | - | - | - |
| 1788431588 | 22.22° C | 85% | 1004.1 hPa | - | - | - | - |
| 1788431273 | 21.67° C | 85% | 1004.1 hPa | - | - | - | - |
| 1788430973 | 21.67° C | 83% | 1003.9 hPa | - | - | - | - |
| 1788430673 | 22.22° C | 81% | 1004 hPa | - | - | - | - |
| 1788430373 | 22.78° C | 80% | 1004 hPa | - | - | - | - |
| 1788430073 | 22.78° C | 79% | 1004 hPa | - | - | - | - |
| 1788429773 | 22.22° C | 81% | 1004.1 hPa | - | - | - | - |
* Rain since midnight (hover to see other rain measurements)
** Current wind speed in m/s (hover to see current wind gust speed)